Bolton Field, OH

11:53 AM EDT on August 19, 2017 (GMT -0400)
Bolton

Weather History for KTZR - September, 2012

Change the Weather History Date:

Sunday, September 30, 2012

  Actual Average Record
Temperature  
Mean Temperature 55 °F -  
Max Temperature 69 °F 70 °F 87 °F (2002)
Min Temperature 41 °F 49 °F 37 °F (2005)
Degree Days  
Heating Degree Days 10    
Growing Degree Days 5 (Base 50)    
Moisture  
Dew Point 43 °F    
Average Humidity 77    
Maximum Humidity 99    
Minimum Humidity 35    
Precipitation  
Precipitation 0.00 in - - ()
Sea Level Pressure  
Sea Level Pressure 29.90 in    
Wind  
Wind Speed 4 mph (WNW)    
Max Wind Speed 12 mph    
Max Gust Speed 18 mph    
Visibility 7 miles    
Events Fog    
Averages and records for this station are not official NWS values.
T = Trace of Precipitation, MM = Missing Value Source: NWS Daily Summary

Daily Weather History Graph

Daily Weather History Graph

Search for Another Location

Airport or City:

Trip Planner

Search our weather history database for the weather conditions in past years. The results will help you decide how hot, cold, wet, or windy it might be!

Date:

Astronomy

Sep. 30, 2012 Rise Set
Actual Time 7:28 AM EDT 7:15 PM EDT
Civil Twilight 7:01 AM EDT 7:42 PM EDT
Nautical Twilight 6:29 AM EDT 8:13 PM EDT
Astronomical Twilight 5:58 AM EDT 8:45 PM EDT
Moon 7:19 PM EDT (9/30) 7:57 AM EDT (9/30)
Length of Visible Light 12h 41m
Length of Day
11h 47m
Full, 100% of the Moon is Illuminated
Sep 30
Full
Oct 8
Last Quarter
Oct 15
New
Oct 21
First Quarter
Oct 29
Full

Hourly Weather History & Observations

Time (EDT) Temp. Windchill Dew Point Humidity Pressure Visibility Wind Dir Wind Speed Gust Speed Precip Events Conditions
12:15 AM 46.2 °F 44.1 °F 45.0 °F 95% 29.95 in 0.5 mi SW 4.6 mph - N/A Fog Fog
12:35 AM 44.8 °F 41.6 °F 44.4 °F 99% 29.95 in 7.0 mi SSW 5.8 mph - N/A   Clear
12:55 AM 46.6 °F - 45.3 °F 95% 29.94 in 7.0 mi SSW 6.9 mph - N/A   Clear
1:15 AM 48.0 °F - 45.9 °F 92% 29.94 in 1.8 mi WSW 4.6 mph - N/A   Mist
1:55 AM 49.5 °F - 45.0 °F 84% 29.93 in 0.5 mi Calm Calm - N/A   Haze
2:15 AM 46.9 °F - 44.1 °F 90% 29.92 in 1.0 mi SW 4.6 mph - N/A   Mist
2:35 AM 46.9 °F - 44.2 °F 90% 29.92 in 0.8 mi Calm Calm - N/A   Mist
2:55 AM 47.1 °F - 43.9 °F 88% 29.92 in 1.8 mi WSW 3.5 mph - N/A   Mist
3:15 AM 46.4 °F 45.2 °F 43.7 °F 90% 29.91 in 2.0 mi WSW 3.5 mph - N/A   Clear
3:35 AM 46.4 °F 45.2 °F 42.6 °F 87% 29.90 in 7.0 mi WSW 3.5 mph - N/A   Clear
3:55 AM 43.9 °F 42.3 °F 41.0 °F 90% 29.90 in 2.0 mi WSW 3.5 mph - N/A   Clear
4:15 AM 43.5 °F - 41.9 °F 94% 29.89 in 2.5 mi Calm Calm - N/A   Clear
4:35 AM 45.3 °F - 42.6 °F 90% 29.89 in 2.5 mi Calm Calm - N/A   Clear
4:55 AM 46.6 °F - 42.4 °F 85% 29.88 in 1.2 mi WSW 3.5 mph - N/A   Mist
5:15 AM 46.0 °F 44.8 °F 42.8 °F 88% 29.88 in 4.0 mi WSW 3.5 mph - N/A   Clear
5:35 AM 45.9 °F 44.6 °F 42.1 °F 87% 29.87 in 2.0 mi WSW 3.5 mph - N/A   Clear
5:55 AM 44.6 °F 43.1 °F 41.9 °F 90% 29.87 in 1.8 mi WSW 3.5 mph - N/A   Mist
6:15 AM 45.5 °F 44.2 °F 41.9 °F 87% 29.87 in 2.5 mi WSW 3.5 mph - N/A   Clear
6:35 AM 44.2 °F 41.8 °F 41.4 °F 90% 29.87 in 1.8 mi West 4.6 mph - N/A   Mist
6:55 AM 42.1 °F 39.2 °F 39.9 °F 92% 29.87 in 2.0 mi West 4.6 mph - N/A   Clear
7:15 AM 42.3 °F 38.6 °F 40.6 °F 94% 29.87 in 10.0 mi WSW 5.8 mph - N/A   Clear
7:25 AM 42.8 °F 40.1 °F 39.2 °F 87% 29.87 in 10.0 mi West 4.6 mph - N/A   Clear
7:35 AM 41.2 °F 38.2 °F 39.9 °F 95% 29.87 in 10.0 mi WSW 4.6 mph - N/A   Clear
7:47 AM 41.0 °F - 39.2 °F 93% 29.87 in 10.0 mi Calm Calm - N/A   Clear
7:55 AM 45.5 °F - 41.9 °F 87% 29.87 in 10.0 mi Calm Calm - N/A   Clear
8:15 AM 46.2 °F 44.1 °F 43.2 °F 89% 29.88 in 10.0 mi North 4.6 mph - N/A   Clear
8:47 AM 51.8 °F - 44.6 °F 76% 29.88 in 10.0 mi NW 4.6 mph - N/A   Clear
10:47 AM 60.8 °F - 48.2 °F 63% 29.88 in 10.0 mi WNW 5.8 mph - N/A   Clear
11:50 AM 62.6 °F - 48.2 °F 59% 29.89 in 10.0 mi North 9.2 mph - N/A   Clear
12:50 PM 66.2 °F - 48.2 °F 52% 29.89 in 10.0 mi North 9.2 mph - N/A   Scattered Clouds
1:50 PM 69.8 °F - 46.4 °F 43% 29.88 in 10.0 mi NNW 6.9 mph 16.1 mph N/A   Scattered Clouds
2:50 PM 69.8 °F - 44.6 °F 40% 29.87 in 10.0 mi North 11.5 mph 18.4 mph N/A   Scattered Clouds
3:50 PM 68.0 °F - 41.0 °F 37% 29.87 in 10.0 mi Calm Calm - N/A   Scattered Clouds
4:50 PM 68.0 °F - 42.8 °F 40% 29.86 in 10.0 mi North 8.1 mph - N/A   Scattered Clouds
5:50 PM 66.2 °F - 37.4 °F 35% 29.86 in 10.0 mi NNW 6.9 mph - N/A   Clear
6:50 PM 62.6 °F - 42.8 °F 48% 29.88 in 10.0 mi NNW 6.9 mph - N/A   Clear
9:15 PM 56.8 °F - 43.0 °F 60% 29.92 in 10.0 mi North 8.1 mph - N/A   Clear
9:35 PM 56.5 °F - 43.3 °F 61% 29.92 in 10.0 mi North 10.4 mph - N/A   Clear
10:15 PM 55.0 °F - 43.9 °F 66% 29.94 in 10.0 mi NNE 6.9 mph - N/A   Clear
10:35 PM 54.7 °F - 44.6 °F 69% 29.94 in 10.0 mi NNE 8.1 mph - N/A   Clear
10:55 PM 54.1 °F - 44.6 °F 70% 29.94 in 10.0 mi NNE 6.9 mph - N/A   Clear
11:15 PM 53.6 °F - 44.6 °F 72% 29.94 in 10.0 mi NNE 4.6 mph - N/A   Clear
11:35 PM 52.9 °F - 44.8 °F 74% 29.94 in 10.0 mi NNE 4.6 mph - N/A   Clear
11:55 PM 52.2 °F - 45.0 °F 76% 29.94 in 10.0 mi NNE 5.8 mph - N/A   Clear